Weather History for Worland, WY

Change the Weather History Date:

Friday, May 17, 2013

  Actual Average Record
Temperature  
Mean Temperature 62 °F 56 °F  
Max Temperature 75 °F 70 °F 90 °F (1970)
Min Temperature 49 °F 41 °F 32 °F (1999)
Degree Days  
Heating Degree Days 3 9  
Month to date heating degree days 144 204  
Since 1 July heating degree days 7323 7671  
Cooling Degree Days 0 0  
Month to date cooling degree days 16 0  
Year to date cooling degree days 16 1  
Growing Degree Days 12 (Base 50)    
Moisture  
Dew Point 49 °F    
Average Humidity 67    
Maximum Humidity 96    
Minimum Humidity 38    
Precipitation  
Precipitation 0.12 in 0.05 in 1.55 in (1978)
Month to date precipitation 0.56 0.75  
Year to date precipitation 2.13 2.49  
Sea Level Pressure  
Sea Level Pressure 29.77 in    
Wind  
Wind Speed 6 mph (NNE)    
Max Wind Speed 43 mph    
Max Gust Speed 51 mph    
Visibility 10 miles    
Events Rain , Thunderstorm    
T = Trace of Precipitation, MM = Missing Value Source: NWS Daily Summary

Daily Weather History Graph

Daily Weather History Graph

Search for Another Location

Airport:

Trip Planner

Search our weather history database for the weather conditions in past years. The results will help you decide how hot, cold, wet, or windy it might be!

Date:

Astronomy

May. 17, 2013 Rise Set
Actual Time 5:43 AM MDT 8:33 PM MDT
Civil Twilight 5:09 AM MDT 9:07 PM MDT
Nautical Twilight 4:27 AM MDT 9:50 PM MDT
Astronomical Twilight 3:37 AM MDT 10:40 PM MDT
Moon 12:25 PM MDT (5/17) 1:22 AM MDT (5/17)
Length of Visible Light 15h 57m
Length of Day
14h 50m
Waxing Crescent, 46% of the Moon is Illuminated
May 17
Waxing Crescent
May 17
First Quarter
May 24
Full
May 31
Last Quarter
Jun 8
New

Hourly Weather History & Observations

Time (MDT) Temp. Dew Point Humidity Pressure Visibility Wind Dir Wind Speed Gust Speed Precip Events Conditions
12:53 AM 57.0 °F 46.9 °F 69% 29.78 in 10.0 mi NNE 5.8 mph - N/A   Overcast
1:53 AM 55.9 °F 48.0 °F 75% 29.76 in 10.0 mi North 3.5 mph - N/A   Scattered Clouds
2:53 AM 55.9 °F 48.9 °F 77% 29.76 in 10.0 mi Calm Calm - N/A   Partly Cloudy
3:53 AM 55.0 °F 48.0 °F 77% 29.80 in 10.0 mi Calm Calm - N/A   Overcast
4:53 AM 54.0 °F 48.0 °F 80% 29.79 in 10.0 mi NNE 4.6 mph - N/A   Clear
6:53 AM 52.0 °F 48.0 °F 86% 29.81 in 10.0 mi Calm Calm - N/A   Clear
7:53 AM 54.0 °F 48.9 °F 83% 29.81 in 10.0 mi Calm Calm - N/A   Clear
8:50 AM 55.4 °F 48.2 °F 77% 29.87 in 10.0 mi SSE 3.5 mph - N/A   Partly Cloudy
8:53 AM 55.9 °F 48.9 °F 77% 29.79 in 10.0 mi SSE 3.5 mph - N/A   Partly Cloudy
9:53 AM 61.0 °F 48.0 °F 62% 29.78 in 10.0 mi Variable 3.5 mph - N/A   Clear
10:53 AM 62.1 °F 46.9 °F 58% 29.76 in 10.0 mi Calm Calm - N/A   Clear
11:53 AM 66.0 °F 48.9 °F 54% 29.73 in 10.0 mi Variable 4.6 mph - N/A   Clear
1:53 PM 71.1 °F 48.0 °F 44% 29.65 in 10.0 mi NE 10.4 mph - N/A   Clear
2:53 PM 73.9 °F 46.9 °F 38% 29.61 in 10.0 mi North 8.1 mph - N/A   Clear
3:36 PM 68.0 °F 46.4 °F 46% 29.76 in 10.0 mi NW 29.9 mph 43.7 mph N/A Thunderstorm Mostly Cloudy
3:53 PM 55.9 °F 48.9 °F 77% 29.73 in 4.0 mi WNW 11.5 mph 44.9 mph 0.02 in Rain , Thunderstorm Thunderstorms and Rain
3:58 PM 55.4 °F 48.2 °F 77% 29.79 in 1.8 mi Calm Calm - 0.03 in Rain , Thunderstorm Heavy Thunderstorms and Rain
4:39 PM 60.8 °F 53.6 °F 77% 29.75 in 10.0 mi North 10.4 mph - 0.10 in   Scattered Clouds
4:53 PM 60.1 °F 54.0 °F 80% 29.71 in 10.0 mi NW 12.7 mph - 0.10 in   Clear
5:53 PM 61.0 °F 53.1 °F 75% 29.76 in 10.0 mi North 20.7 mph 24.2 mph N/A   Scattered Clouds
6:08 PM 60.8 °F 51.8 °F 72% 29.82 in 10.0 mi North 16.1 mph 32.2 mph N/A   Mostly Cloudy
6:16 PM 60.8 °F 51.8 °F 72% 29.82 in 10.0 mi NNW 16.1 mph 27.6 mph N/A   Mostly Cloudy
6:53 PM 60.1 °F 50.0 °F 69% 29.77 in 10.0 mi Variable 5.8 mph - N/A   Mostly Cloudy
7:53 PM 59.0 °F 50.0 °F 72% 29.79 in 10.0 mi SW 3.5 mph - N/A   Partly Cloudy
8:53 PM 55.0 °F 52.0 °F 89% 29.80 in 10.0 mi ESE 6.9 mph - N/A   Clear
9:53 PM 54.0 °F 51.1 °F 90% 29.81 in 10.0 mi SE 6.9 mph - N/A   Clear
10:53 PM 52.0 °F 50.0 °F 93% 29.81 in 10.0 mi Calm Calm - N/A   Clear
11:53 PM 50.0 °F 48.9 °F 96% 29.80 in 10.0 mi ENE 3.5 mph - N/A   Clear